Miscellaneous Local Product
Issued by NWS Hastings, NE

Home | Current Version | Previous Version | Graphics & Text | Print | Product List | Glossary On
Versions: 1 2 3 4 5 6 7 8 9 10 11 12 13 14 15 16 17 18 19 20 21 22 23 24 25 26 27 28 29 30 31 32 33 34 35 36 37 38 39 40 41 42 43 44 45 46 47 48 49 50
000
AXUS43 KGID 192310
MISGRI

GID CWA HOURLY WEATHER ROUNDUP
NATIONAL WEATHER SERVICE HASTINGS NE
600 PM CDT FRI SEP 19 2014

NOTE: "FAIR" INDICATES FEW OR NO CLOUDS BELOW 12,000 FEET WITH NO
SIGNIFICANT WEATHER AND/OR OBSTRUCTIONS TO VISIBILITY.

...SOUTH CENTRAL NEBRASKA...

CITY           SKY/WX    TMP DP  RH WIND       PRES   REMARKS
GRAND ISLAND   SUNNY     88  62  41 S18G29    29.80F
HASTINGS       SUNNY     86  59  39 S14G24    29.81F
KEARNEY        SUNNY     88  63  42 S21G26    29.81S
ORD            SUNNY     88  63  43 S20G25    29.75S
YORK           SUNNY     84  64  51 SW15G22   29.81S
AURORA         SUNNY     86  60  41 S16       29.81S
LEXINGTON      SUNNY     90  56  32 S14G22    29.80S
HOLDREGE       SUNNY     87  56  34 S17G25    29.82S
HEBRON         SUNNY     88  60  39 SW14G25   29.82F

...NEBRASKA PANHANDLE...

CITY           SKY/WX    TMP DP  RH WIND       PRES   REMARKS
CHADRON        MOSUNNY   87  49  26 N10       29.83S
ALLIANCE       MOSUNNY   86  47  25 NW9       29.85F
SCOTTSBLUFF    SUNNY     90  48  23 VRB3      29.86F
SIDNEY         MOSUNNY   86  46  24 N9        29.90R

...WESTERN AND NORTH CENTRAL NEBRASKA...

CITY           SKY/WX    TMP DP  RH WIND       PRES   REMARKS
VALENTINE      SUNNY     88  54  31 VRB3      29.79S
AINSWORTH      SUNNY     84  57  38 N5        29.80R
ONEILL         SUNNY     86  64  46 NE5       29.76R
BROKEN BOW     SUNNY     92  56  29 S16G26    29.78S HX  90
IMPERIAL       SUNNY     91  51  25 S13       29.83R
NORTH PLATTE   SUNNY     90  57  32 SW10      29.79R
MCCOOK         MOSUNNY   91  58  32 S18G24    29.82R HX  90

...EASTERN NEBRASKA...

CITY           SKY/WX    TMP DP  RH WIND       PRES   REMARKS
NORFOLK        SUNNY     88  63  43 SW14G24   29.75R
SO SIOUX CITY  SUNNY     88  66  48 S12       29.73F HX  90
TEKAMAH        SUNNY     89  65  44 S16G28    29.75S HX  91
ALBION         SUNNY     87  61  42 SW9G18    29.77S
OMAHA EPPLEY   MOSUNNY   85  68  56 S20G29    29.78F
OFFUTT AFB     SUNNY     83  73  70 SE15      29.79F
MILLARD        SUNNY     88  67  49 S7        29.79R HX  91
LINCOLN        SUNNY     88  65  46 S16       29.80S HX  90
NEBRASKA CITY    N/A     82  64  52 S22       29.84S
BEATRICE       SUNNY     87  65  47 S17G23    29.82F
FALLS CITY     SUNNY     80  69  69 S16       29.87S

...NORTHERN KANSAS...

CITY           SKY/WX    TMP DP  RH WIND       PRES   REMARKS
GOODLAND       SUNNY     87  57  35 S18G25    29.88S
HILL CITY      SUNNY     90  57  32 S15G23    29.84F
NORTON         CLEAR     88  52  29 S18G24    29.82S
SMITH CENTER   SUNNY     90  57  33 S20G25    29.83F
BELOIT         SUNNY     90  63  40 S10       29.83S HX  90
HAYS           SUNNY     90  61  37 S21G29    29.86F
RUSSELL        SUNNY     87  60  40 S17G24    29.86F
CONCORDIA      SUNNY     86  67  52 S13       29.85F
SALINA         SUNNY     88  66  48 S14       29.87F HX  90
TOPEKA         SUNNY     82  69  64 S9        29.92S



USA.gov is the U.S. government's official web portal to all federal, state and local government web resources and services.